Content
SEND FEEDBACK

Daily
Averages
Monthly
Summary
Canada

VANCOUVER, BRITISH COLUMBIA


Home > North America > Canada > British Columbia
Elevation: 2 meters     Latitude: 49 11N     Longitude: 123 10W

WEATHER
 
SELECT A DAY
Number of Records: 249,704;   Date Range: 5/15/97 - 8/31/14
 
SHARE

PRINT THIS DATA

[ ← Previous Day ]
WEATHER ALMANAC - 18 JULY, 2013
[ Next Day → ]
[ °F ]   °C
Weather ElementAverageHighLow
Temperature17.1 °C23 °C (5:15 pm)13 °C (4:55 am)
Dewpoint12.7 °C14 °C (1:15 pm)11 °C (1:55 am)
Humidity76.2 %94 % (5:15 am)57 % (5:15 pm)
Barometer1021.3 hPa1023.4 hPa (8:55 am)1019.3 hPa (10:55 pm)
Wind Speed9.2 km/h20.4 km/h (1:15 am)
Weather ElementAverage
Visibility15.3 km
Wind DirectionSSE (154.3 °)

Weather ElementTotal
Precipitation---
Heating Degree Days0.3 (Base 18.3)
Growing Degree Days8 (Base 10)
Averaged from 68 records on 18 July, 2013
WEATHER CONDITIONS BREAKOUT
WIND DIRECTION BREAKOUT
WEATHER BY HOUR - 18 JULY, 2013
[ °F ]   °C
Local TimeTemperatureDewpointHumidityBarometerVisibilityWind DirectionWind SpeedGust SpeedPrecipitationEventsConditions
12:35 AM15 °C12 °C82 %1021.3 hPa16.1 kmSouth (180°)11.1 km/hClear
12:55 AM15 °C12 °C82 %1021.3 hPa16.1 kmSouth (180°)14.8 km/hClear
1:15 AM15 °C12 °C82 %1021.3 hPa16.1 kmSouth (190°)20.4 km/hClear
1:35 AM15 °C12 °C82 %1021.7 hPa16.1 kmSouth (180°)14.8 km/hClear
1:55 AM14 °C11 °C82 %1021.7 hPa16.1 kmSouth (190°)14.8 km/hClear
2:15 AM14 °C11 °C82 %1021.7 hPa16.1 kmSouth (180°)11.1 km/hClear
2:35 AM14 °C11 °C82 %1021.7 hPa16.1 kmSouth (180°)13 km/hClear
2:55 AM14 °C11 °C82 %1021.7 hPa16.1 kmSouth (190°)14.8 km/hClear
3:15 AM14 °C11 °C82 %1021.7 hPa16.1 kmSouth (190°)16.7 km/hClear
3:35 AM14 °C11 °C82 %1022 hPa16.1 kmSouth (190°)14.8 km/hClear
3:55 AM14 °C11 °C82 %1021.7 hPa16.1 kmSouth (180°)13 km/hClear
4:15 AM14 °C11 °C82 %1022 hPa16.1 kmSSE (160°)5.6 km/hClear
4:35 AM14 °C12 °C88 %1022 hPa16.1 kmSSE (160°)5.6 km/hClear
4:55 AM13 °C11 °C88 %1022 hPa16.1 kmSouth (170°)7.4 km/hClear
5:15 AM13 °C12 °C94 %1022 hPa16.1 kmSouth (170°)7.4 km/hScattered Clouds
5:35 AM14 °C12 °C88 %1022 hPa16.1 kmSouth (170°)7.4 km/hMostly Cloudy
5:55 AM14 °C12 °C88 %1022.4 hPa16.1 kmSouth (180°)9.3 km/hMostly Cloudy
6:15 AM14 °C12 °C88 %1022.4 hPa16.1 kmSouth (190°)14.8 km/hMostly Cloudy
6:35 AM14 °C12 °C88 %1022.4 hPa14.5 kmSouth (180°)9.3 km/hOvercast
6:55 AM14 °C12 °C88 %1022.7 hPa16.1 kmSouth (170°)9.3 km/hOvercast
7:15 AM14 °C12 °C88 %1022.7 hPa16.1 kmSouth (180°)5.6 km/hOvercast
7:35 AM15 °C12 °C82 %1022.7 hPa16.1 kmSouth (170°)5.6 km/hOvercast
7:55 AM15 °C12 °C82 %1023 hPa14.5 kmCalmOvercast
8:15 AM15 °C12 °C82 %1023 hPa12.9 kmSouth (170°)5.6 km/hOvercast
8:35 AM15 °C12 °C82 %1023 hPa14.5 kmSouth (170°)7.4 km/hOvercast
8:55 AM15 °C12 °C82 %1023.4 hPa16.1 kmCalmOvercast
9:15 AM15 °C12 °C82 %1023.4 hPa14.5 kmSouth (180°)7.4 km/hOvercast
9:35 AM15 °C12 °C82 %1023.4 hPa14.5 kmCalmMostly Cloudy
9:55 AM15 °C13 °C88 %1023.4 hPa14.5 kmCalmOvercast
10:15 AM16 °C13 °C82 %1023.4 hPa12.9 kmCalmOvercast
10:35 AM16 °C13 °C82 %1023 hPa14.5 kmCalmMostly Cloudy
10:55 AM17 °C13 °C77 %1023 hPa14.5 kmCalmOvercast
11:15 AM17 °C13 °C77 %1023 hPa12.9 kmNorth (350°)5.6 km/hScattered Clouds
11:35 AM17 °C13 °C77 %1023 hPa14.5 kmNNE (20°)7.4 km/hClear
11:55 AM18 °C13 °C73 %1023 hPa14.5 kmNorth (360°)7.4 km/hClear
12:15 PM18 °C13 °C73 %1022.7 hPa16.1 kmNorth (10°)9.3 km/hClear
12:35 PM18 °C13 °C73 %1022.7 hPa14.5 kmNNW (340°)7.4 km/hClear
12:55 PM19 °C13 °C68 %1022.7 hPa14.5 kmNorth (10°)5.6 km/hClear
1:15 PM19 °C14 °C73 %1022.4 hPa14.5 kmNorth (350°)7.4 km/hClear
1:35 PM19 °C13 °C68 %1022.4 hPa12.9 kmNorth (10°)7.4 km/hClear
1:55 PM19 °C14 °C73 %1022 hPa14.5 kmNorth (360°)9.3 km/hClear
2:15 PM19 °C13 °C68 %1022 hPa16.1 kmNorth (350°)7.4 km/hClear
3:35 PM20 °C14 °C68 %1021.3 hPa14.5 kmNorth (10°)9.3 km/hClear
3:55 PM21 °C14 °C64 %1021 hPa14.5 kmNorth (10°)7.4 km/hClear
4:15 PM21 °C14 °C64 %1021 hPa12.9 kmCalmClear
4:35 PM22 °C14 °C60 %1020.7 hPa16.1 kmCalmClear
4:55 PM22 °C14 °C60 %1020.7 hPa16.1 kmCalmClear
5:15 PM23 °C14 °C57 %1020.3 hPa16.1 kmSSW (200°)9.3 km/hClear
5:35 PM23 °C14 °C57 %1020 hPa14.5 kmSouth (170°)9.3 km/hClear
5:55 PM22 °C14 °C60 %1020 hPa16.1 kmSSW (200°)14.8 km/hClear
6:15 PM22 °C14 °C60 %1020 hPa14.5 kmSSW (200°)16.7 km/hClear
6:35 PM22 °C14 °C60 %1020 hPa16.1 kmSouth (190°)11.1 km/hClear
6:55 PM22 °C14 °C60 %1019.6 hPa16.1 kmSouth (190°)13 km/hClear
7:15 PM22 °C14 °C60 %1019.6 hPa16.1 kmSSW (200°)16.7 km/hClear
7:35 PM21 °C14 °C64 %1019.6 hPa16.1 kmSouth (180°)11.1 km/hClear
7:55 PM20 °C14 °C68 %1019.6 hPa16.1 kmSouth (190°)11.1 km/hClear
8:15 PM20 °C14 °C68 %1019.6 hPa14.5 kmSouth (180°)13 km/hClear
8:35 PM19 °C14 °C73 %1019.6 hPa14.5 kmSouth (180°)9.3 km/hClear
8:55 PM18 °C13 °C73 %1019.6 hPa14.5 kmSouth (180°)9.3 km/hClear
9:15 PM18 °C13 °C73 %1019.6 hPa16.1 kmSouth (170°)13 km/hClear
9:35 PM17 °C13 °C77 %1019.6 hPa16.1 kmSouth (180°)13 km/hClear
9:55 PM17 °C13 °C77 %1019.6 hPa16.1 kmSouth (180°)13 km/hClear
10:15 PM17 °C13 °C77 %1019.6 hPa16.1 kmSouth (180°)11.1 km/hClear
10:35 PM17 °C13 °C77 %1019.6 hPa16.1 kmSouth (180°)14.8 km/hClear
10:55 PM17 °C13 °C77 %1019.3 hPa16.1 kmSouth (180°)16.7 km/hRainLight Rain
11:15 PM17 °C13 °C77 %1019.3 hPa16.1 kmSouth (190°)16.7 km/hClear
11:35 PM16 °C13 °C82 %1019.3 hPa16.1 kmSouth (170°)11.1 km/hClear
11:55 PM16 °C13 °C82 %1019.6 hPa16.1 kmSouth (170°)11.1 km/hClear
Hourly data recorded from CZBB, located 0 kilometers away from Vancouver, British Columbia







STORIES FROM OUR PARTNERS